Location: Unnamed
(29.8582°N, 98.1264°W)
Time: 21:19:39
(UTC-06:00)

Tiangong - Visible Passes

Search period start: 18 January 2026 00:00
Search period end: 28 January 2026 00:00
Orbit: 378 x 393 km, 41.5° (Epoch: 18 January)

Date Brightness Start Highest point End Pass type
(mag) Time Alt. Az. Time Alt. Az. Time Alt. Az.
18 Jan 0.8 05:20:51 16° ENE 05:20:51 16° ENE 05:21:36 10° ENE visible
18 Jan -0.5 06:53:07 11° WNW 06:55:29 21° NNW 06:58:00 10° NNE visible
19 Jan -0.5 05:57:05 25° NNE 05:57:05 25° NNE 05:58:57 10° NE visible
20 Jan -0.1 06:33:06 14° NNW 06:33:54 15° NNW 06:35:49 10° NNE visible
21 Jan 0.9 05:36:43 10° NNE 05:36:43 10° NNE 05:36:46 10° NNE visible
22 Jan 0.4 06:12:26 12° N 06:12:26 12° N 06:13:26 10° NNE visible
23 Jan 0.5 06:49:38 10° N 06:50:17 10° N 06:50:54 10° NNE visible
25 Jan 0.4 06:27:07 10° NNW 06:28:24 12° N 06:29:42 10° NNE visible
27 Jan 0.2 06:05:35 14° N 06:06:20 15° NNE 06:08:18 10° NE visible
